(125330) = 2001 VR47

Discovered at Socorro on 2001-11-09 by LINEAR.

Orbit

Orbit type: Main Belt

Note: WebGL enabled browser required.

epoch2024-03-31.0
epoch JD2460400.5
perihelion date2022-09-21.79559
perihelion JD2459844.29559
argument of perihelion (°)132.96281
ascending node (°)275.10914
inclination (°)1.11552
eccentricity0.1148324
perihelion distance (AU)2.3101896
Tisserand w.r.t. Jupiter3.4
ΔV w.r.t. Earth (km/sec)9.5
semimajor axis (AU)2.6098895
mean anomaly (°)130.01848
mean daily motion (°/day)0.23376020
aphelion distance (AU)2.910
period (years)4.22
P-vector [x]0.66805873
P-vector [y]0.67691403
P-vector [z]0.30900635
Q-vector [x]-0.74385585
Q-vector [y]0.61834696
Q-vector [z]0.25362476
absolute magnitude15.97
phase slope0.15
uncertainty0
referenceMPEC 2024-F14
observations used961
oppositions18
arc length (days)10101
first opposition used1996
last opposition used2024
residual rms (arc-secs)0.64
perturbers coarse indicatorM-v
perturbers precise indicator003Ek
first observation date used1996-07-21.0
last observation date used2024-03-17.0
computer nameMPCLINUX
JD of orbit computation2456966.877573
perihelion JD uncertainty (days)1.1054E-04
argument of perihelion uncertainty (°)2.1779E-04
ascending node uncertainty (°)2.1630E-04
inclination uncertainty (°)3.5348E-06
eccentricity uncertainty 4.4745E-08
perihelion distance uncertainty (AU)1.2387E-07
Minimum Orbit Intersection Distances (in AU)
for orbit epoch: 2460400.5, reference: E2024-G95
Mercury1.99229
Venus1.58836
Earth1.32051
Mars0.79977
Jupiter2.42957
Saturn6.60942
Uranus15.6692
Neptune27.4916

Observations

983 total observations over interval: 1996 07 21.31736 – 2024 03 17.519141
These data are available for download (format description).

Date (UT) J2000 RA J2000 Dec Magn Location Ref
1996 07 21.31736 22 16 52.45 -09 23 00.7 18.7   809 – European Southern Observatory, La Silla MPS 78160
1996 07 21.33056 22 16 52.06 -09 23 01.9   809 – European Southern Observatory, La Silla MPS 78160
1996 07 21.34375 22 16 51.72 -09 23 03.4   809 – European Southern Observatory, La Silla MPS 78160
1997 12 21.38048 07 46 46.27 +20 52 59.3 19.4 V 691 – Steward Observatory, Kitt Peak-Spacewatch MPS 79978
1997 12 21.40301 07 46 45.18 +20 53 01.4 20.0 V 691 – Steward Observatory, Kitt Peak-Spacewatch MPS 79978
1997 12 21.44646 07 46 43.04 +20 53 04.8 20.0 V 691 – Steward Observatory, Kitt Peak-Spacewatch MPS 79978
1997 12 28.22236 07 40 54.45 +21 03 35.1 20.1 V 691 – Steward Observatory, Kitt Peak-Spacewatch MPS 123477
1997 12 28.24485 07 40 53.16 +21 03 37.9 20.2 V 691 – Steward Observatory, Kitt Peak-Spacewatch MPS 123477
1997 12 28.26833 07 40 51.92 +21 03 42.4 19.4 V 691 – Steward Observatory, Kitt Peak-Spacewatch MPS 123477
1998 01 01.29856 07 36 59.89 +21 10 33.2 19.7 V 691 – Steward Observatory, Kitt Peak-Spacewatch MPS 79978
1998 01 01.32092 07 36 58.50 +21 10 35.0 20.2 V 691 – Steward Observatory, Kitt Peak-Spacewatch MPS 79978
1998 01 01.34338 07 36 57.11 +21 10 37.3 19.9 V 691 – Steward Observatory, Kitt Peak-Spacewatch MPS 79978
2001 09 26.41108 05 29 16.27 +24 05 20.8 19.6   704 – Lincoln Laboratory ETS, New Mexico MPS 55127
2001 09 26.42563 05 29 17.13 +24 05 20.6 20.4   704 – Lincoln Laboratory ETS, New Mexico MPS 55127
2001 09 26.44014 05 29 17.94 +24 05 22.3 20.6   704 – Lincoln Laboratory ETS, New Mexico MPS 55127
2001 09 26.45467 05 29 18.65 +24 05 23.4 19.9   704 – Lincoln Laboratory ETS, New Mexico MPS 55127
2001 09 26.46919 05 29 19.55 +24 05 23.3 20.3   704 – Lincoln Laboratory ETS, New Mexico MPS 55127
2001 11 09.44172 05 44 04.21 +24 08 20.3 19.5   704 – Lincoln Laboratory ETS, New Mexico MPS 41305
2001 11 09.45608 05 44 03.85 +24 08 20.1 19.7   704 – Lincoln Laboratory ETS, New Mexico MPS 41305
2001 11 09.47047 05 44 03.46 +24 08 19.8 19.1   704 – Lincoln Laboratory ETS, New Mexico MPS 41305
2001 11 09.48486 05 44 03.11 +24 08 19.4 19.6   704 – Lincoln Laboratory ETS, New Mexico MPS 41305
2001 11 12.37667 05 42 47.39 +24 07 01.4 19.4   704 – Lincoln Laboratory ETS, New Mexico MPS 41305
2001 11 12.39112 05 42 46.92 +24 07 02.0 19.9   704 – Lincoln Laboratory ETS, New Mexico MPS 41305
2001 11 12.40560 05 42 46.47 +24 07 00.8 19.8   704 – Lincoln Laboratory ETS, New Mexico MPS 41305
2001 11 12.42005 05 42 46.03 +24 07 00.7 20.0   704 – Lincoln Laboratory ETS, New Mexico MPS 41305
2001 11 20.36823 05 37 53.90 +24 02 05.1 18.5   704 – Lincoln Laboratory ETS, New Mexico MPS 44772
2001 11 20.38289 05 37 53.22 +24 02 04.6 18.5   704 – Lincoln Laboratory ETS, New Mexico MPS 44772
2001 11 20.39755 05 37 52.54 +24 02 03.9 18.7   704 – Lincoln Laboratory ETS, New Mexico MPS 44772
2001 11 20.41222 05 37 51.90 +24 02 02.9 18.6   704 – Lincoln Laboratory ETS, New Mexico MPS 44772
2001 11 20.42698 05 37 51.19 +24 02 02.2 18.9   704 – Lincoln Laboratory ETS, New Mexico MPS 44772
2001 11 21.37418 05 37 08.98 +24 01 18.6 19.6   704 – Lincoln Laboratory ETS, New Mexico MPS 55127
2001 11 21.38886 05 37 08.33 +24 01 17.8 19.6   704 – Lincoln Laboratory ETS, New Mexico MPS 55127
2001 11 21.40353 05 37 07.59 +24 01 17.2 19.8   704 – Lincoln Laboratory ETS, New Mexico MPS 55127
2001 12 17.21821 05 12 13.20 +23 27 17.5 19.1   704 – Lincoln Laboratory ETS, New Mexico MPS 44772
2001 12 17.23450 05 12 12.17 +23 27 15.9 19.9   704 – Lincoln Laboratory ETS, New Mexico MPS 44772
2001 12 17.25007 05 12 11.19 +23 27 13.9 19.3   704 – Lincoln Laboratory ETS, New Mexico MPS 44772
2001 12 17.26571 05 12 10.18 +23 27 12.1 19.7   704 – Lincoln Laboratory ETS, New Mexico MPS 44772
2001 12 17.28149 05 12 09.21 +23 27 10.6 19.2   704 – Lincoln Laboratory ETS, New Mexico MPS 44772
2001 12 18.22316 05 11 12.24 +23 25 30.7 18.5   704 – Lincoln Laboratory ETS, New Mexico MPS 44772
2001 12 18.23940 05 11 11.27 +23 25 28.7 18.8   704 – Lincoln Laboratory ETS, New Mexico MPS 44772
2001 12 18.27020 05 11 09.29 +23 25 25.6 18.8   704 – Lincoln Laboratory ETS, New Mexico MPS 44772
2001 12 18.28628 05 11 08.33 +23 25 23.9 20.2   704 – Lincoln Laboratory ETS, New Mexico MPS 44772
2001 12 19.24786 05 10 10.80 +23 23 40.8 19.0   704 – Lincoln Laboratory ETS, New Mexico MPS 46687
2001 12 19.26299 05 10 09.87 +23 23 39.0 18.4   704 – Lincoln Laboratory ETS, New Mexico MPS 46687
2001 12 19.27812 05 10 08.91 +23 23 37.2 18.9   704 – Lincoln Laboratory ETS, New Mexico MPS 46687
2001 12 19.29326 05 10 07.96 +23 23 35.1 19.1   704 – Lincoln Laboratory ETS, New Mexico MPS 46687
2001 12 20.23641 05 09 12.32 +23 21 54.4 18.3   704 – Lincoln Laboratory ETS, New Mexico MPS 46687
2001 12 20.25153 05 09 11.43 +23 21 53.3 18.4   704 – Lincoln Laboratory ETS, New Mexico MPS 46687
2001 12 20.26664 05 09 10.45 +23 21 51.0 18.4   704 – Lincoln Laboratory ETS, New Mexico MPS 46687
2001 12 20.28175 05 09 09.59 +23 21 50.0 18.7   704 – Lincoln Laboratory ETS, New Mexico MPS 46687
2001 12 20.29686 05 09 08.64 +23 21 48.1 18.4   704 – Lincoln Laboratory ETS, New Mexico MPS 46687
2001 12 20.29950 05 09 08.35 +23 21 47.5 18.2   704 – Lincoln Laboratory ETS, New Mexico MPS 46687
2001 12 20.31457 05 09 07.48 +23 21 46.6 18.7   704 – Lincoln Laboratory ETS, New Mexico MPS 46687
2001 12 20.32964 05 09 06.55 +23 21 44.4 18.6   704 – Lincoln Laboratory ETS, New Mexico MPS 46687
2001 12 20.34490 05 09 05.60 +23 21 43.1 18.4   704 – Lincoln Laboratory ETS, New Mexico MPS 46687
2001 12 20.36002 05 09 04.73 +23 21 41.8 18.5   704 – Lincoln Laboratory ETS, New Mexico MPS 46687
2002 01 08.22719 04 54 24.77 +22 49 39.3 19.1   704 – Lincoln Laboratory ETS, New Mexico MPS 46687
2002 01 08.24230 04 54 24.26 +22 49 37.8 19.6   704 – Lincoln Laboratory ETS, New Mexico MPS 46687
2002 01 08.25740 04 54 23.72 +22 49 36.5 19.8   704 – Lincoln Laboratory ETS, New Mexico MPS 46687
2002 01 08.27257 04 54 23.24 +22 49 34.9 19.5   704 – Lincoln Laboratory ETS, New Mexico MPS 46687
2002 01 08.28770 04 54 22.74 +22 49 33.3 19.5   704 – Lincoln Laboratory ETS, New Mexico MPS 46687
2002 01 13.15070 04 52 13.50 +22 43 15.1 19.8   704 – Lincoln Laboratory ETS, New Mexico MPS 55127
2002 01 13.18104 04 52 12.75 +22 43 12.5 19.9   704 – Lincoln Laboratory ETS, New Mexico MPS 55127
2002 01 13.19621 04 52 12.42 +22 43 11.6 19.9   704 – Lincoln Laboratory ETS, New Mexico MPS 55127
2002 01 13.21139 04 52 12.00 +22 43 10.5 19.7   704 – Lincoln Laboratory ETS, New Mexico MPS 55127
2002 01 15.16028 04 51 33.50 +22 41 00.2 19.3   704 – Lincoln Laboratory ETS, New Mexico MPS 55127
2002 01 15.17536 04 51 33.21 +22 40 59.3 19.8   704 – Lincoln Laboratory ETS, New Mexico MPS 55127
2002 01 15.19046 04 51 32.88 +22 40 58.4 19.8   704 – Lincoln Laboratory ETS, New Mexico MPS 55127
2002 01 15.20555 04 51 32.56 +22 40 57.8 19.8   704 – Lincoln Laboratory ETS, New Mexico MPS 55127
2002 01 15.22064 04 51 32.29 +22 40 56.8 19.8   704 – Lincoln Laboratory ETS, New Mexico MPS 55127
2002 02 07.19126 04 53 26.63 +22 32 24.3 20.2   704 – Lincoln Laboratory ETS, New Mexico MPS 55127
2002 02 07.20577 04 53 26.98 +22 32 25.4 20.1   704 – Lincoln Laboratory ETS, New Mexico MPS 55127
2002 02 07.22016 04 53 27.45 +22 32 25.6 20.2   704 – Lincoln Laboratory ETS, New Mexico MPS 55127
2003 04 04.24280 12 47 37.98 -06 58 11.2 19.2   704 – Lincoln Laboratory ETS, New Mexico MPS 78160
2003 04 04.25552 12 47 37.26 -06 58 06.1 19.6   704 – Lincoln Laboratory ETS, New Mexico MPS 78160
2003 04 04.26765 12 47 36.62 -06 58 01.8 19.4   704 – Lincoln Laboratory ETS, New Mexico MPS 78160
2003 04 04.27998 12 47 35.92 -06 57 58.1 19.8   704 – Lincoln Laboratory ETS, New Mexico MPS 78160
2003 04 04.30387 12 47 34.76 -06 57 49.7 20.0 V 691 – Steward Observatory, Kitt Peak-Spacewatch MPS 78160
2003 04 04.33434 12 47 33.14 -06 57 39.6 20.1 V 691 – Steward Observatory, Kitt Peak-Spacewatch MPS 78160
2003 04 04.36168 12 47 31.69 -06 57 30.9 20.0 V 691 – Steward Observatory, Kitt Peak-Spacewatch MPS 78160
2003 04 09.24593 12 43 20.96 -06 30 37.7 19.6   704 – Lincoln Laboratory ETS, New Mexico MPS 78160
2003 04 09.25786 12 43 20.33 -06 30 34.0 19.8   704 – Lincoln Laboratory ETS, New Mexico MPS 78160
